Location: Carnoy
(49.9849°N, 2.7558°E)
Time: 21:16:55
(UTC+00:00)

STARLINK-1091 - Pass Details

Date: 24 January 2020
Orbit: 349 x 350 km, 53.0° (Epoch: 17 February)

Event Time Altitude Azimuth Distance (km) Brightness Sun altitude
Rises 17:10:48 0° 264° (W) 2,158 8.5 -6.9°
Reaches altitude 10° 17:12:50 10° 270° (W) 1,317 6.9 -7.2°
Maximum altitude 17:15:43 53° 348° (NNW) 443 3.1 -7.6°
Enters shadow 17:18:25 11° 66° (ENE) 1,243 4.7 -8.0°
